Time,TemperatureF,DewpointF,PressureIn,WindDirection,WindDirectionDegrees,WindSpeedMPH,WindSpeedGustMPH,Humidity,HourlyPrecipIn,Conditions,Clouds,dailyrainin,SoftwareType,DateUTC
2013-01-08 00:00:00,24.6,19.0,29.59,South,179,0.0,1.0,79,0.00,,---,0.00,VWS V14.00,2013-01-08 06:00:00,
2013-01-08 00:05:00,24.4,18.9,29.59,South,179,0.0,1.0,79,0.00,,---,0.00,VWS V14.00,2013-01-08 06:05:00,
2013-01-08 00:10:00,24.4,18.9,29.59,South,179,0.0,1.0,79,0.00,,---,0.00,VWS V14.00,2013-01-08 06:10:00,
2013-01-08 00:15:00,24.4,18.9,29.59,South,179,0.0,1.0,79,0.00,,---,0.00,VWS V14.00,2013-01-08 06:15:00,
2013-01-08 00:20:00,24.4,19.2,29.59,South,179,0.0,1.0,80,0.00,,---,0.00,VWS V14.00,2013-01-08 06:20:00,
2013-01-08 00:25:00,24.4,19.2,29.59,South,179,0.0,1.0,80,0.00,,---,0.00,VWS V14.00,2013-01-08 06:25:00,
2013-01-08 00:30:00,24.4,19.2,29.59,South,179,0.0,1.0,80,0.00,,---,0.00,VWS V14.00,2013-01-08 06:30:00,
2013-01-08 00:35:00,24.4,19.2,29.59,South,179,0.0,1.0,80,0.00,,---,0.00,VWS V14.00,2013-01-08 06:35:00,
2013-01-08 00:40:00,24.4,19.2,29.59,South,179,0.0,1.0,80,0.00,,---,0.00,VWS V14.00,2013-01-08 06:40:00,
2013-01-08 00:45:00,24.6,19.6,29.59,South,179,0.0,1.0,81,0.00,,---,0.00,VWS V14.00,2013-01-08 06:45:00,
2013-01-08 00:50:00,24.6,19.6,29.59,South,179,0.0,1.0,81,0.00,,---,0.00,VWS V14.00,2013-01-08 06:50:00,
2013-01-08 00:55:00,25.0,20.0,29.59,South,179,0.0,1.0,81,0.00,,---,0.00,VWS V14.00,2013-01-08 06:55:00,
2013-01-08 01:00:00,25.0,20.0,29.59,South,179,0.0,1.0,81,0.00,,---,0.00,VWS V14.00,2013-01-08 07:00:00,
2013-01-08 01:05:00,25.0,20.0,29.59,South,179,0.0,1.0,81,0.00,,---,0.00,VWS V14.00,2013-01-08 07:05:00,
2013-01-08 01:10:00,25.2,20.2,29.59,South,179,0.0,1.0,81,0.00,,---,0.00,VWS V14.00,2013-01-08 07:10:00,
2013-01-08 01:15:00,25.3,20.6,29.59,SSE,165,0.0,1.0,82,0.00,,---,0.00,VWS V14.00,2013-01-08 07:15:00,
2013-01-08 01:20:00,25.3,20.6,29.59,SSE,166,0.0,1.0,82,0.00,,---,0.00,VWS V14.00,2013-01-08 07:20:00,
2013-01-08 01:25:00,25.3,20.6,29.59,SSE,165,0.0,1.0,82,0.00,,---,0.00,VWS V14.00,2013-01-08 07:25:00,
2013-01-08 01:30:00,25.2,20.5,29.59,SSE,165,0.0,1.0,82,0.00,,---,0.00,VWS V14.00,2013-01-08 07:30:00,
2013-01-08 01:35:00,25.2,20.5,29.59,SSE,165,0.0,1.0,82,0.00,,---,0.00,VWS V14.00,2013-01-08 07:35:00,
2013-01-08 01:40:00,25.3,20.6,29.59,SSE,165,0.0,1.0,82,0.00,,---,0.00,VWS V14.00,2013-01-08 07:40:00,
2013-01-08 01:45:00,25.3,20.6,29.59,SSE,166,0.0,1.0,82,0.00,,---,0.00,VWS V14.00,2013-01-08 07:45:00,
2013-01-08 01:50:00,25.3,20.9,29.59,SSE,165,0.0,1.0,83,0.00,,---,0.00,VWS V14.00,2013-01-08 07:50:00,
2013-01-08 01:55:00,25.3,20.9,29.59,SSE,165,0.0,1.0,83,0.00,,---,0.00,VWS V14.00,2013-01-08 07:55:00,
2013-01-08 02:00:00,25.3,20.9,29.59,SSE,165,0.0,1.0,83,0.00,,---,0.00,VWS V14.00,2013-01-08 08:00:00,
2013-01-08 02:05:00,25.2,20.7,29.59,SSE,165,0.0,1.0,83,0.00,,---,0.00,VWS V14.00,2013-01-08 08:05:00,
2013-01-08 02:10:00,25.3,20.9,29.59,SSE,165,0.0,1.0,83,0.00,,---,0.00,VWS V14.00,2013-01-08 08:10:00,
2013-01-08 02:15:00,25.3,20.9,29.59,SSE,165,0.0,1.0,83,0.00,,---,0.00,VWS V14.00,2013-01-08 08:15:00,
2013-01-08 02:20:00,25.5,21.1,29.59,SSE,165,0.0,1.0,83,0.00,,---,0.00,VWS V14.00,2013-01-08 08:20:00,
2013-01-08 02:25:00,25.9,21.4,29.59,SSE,165,0.0,1.0,83,0.00,,---,0.00,VWS V14.00,2013-01-08 08:25:00,
2013-01-08 02:30:00,26.6,22.4,29.59,SSE,160,0.0,1.0,84,0.00,,---,0.00,VWS V14.00,2013-01-08 08:30:00,
2013-01-08 02:35:00,26.8,22.3,29.59,SSE,149,0.0,1.0,83,0.00,,---,0.00,VWS V14.00,2013-01-08 08:35:00,
2013-01-08 02:40:00,27.1,22.7,29.59,SSE,149,0.0,1.0,83,0.00,,---,0.00,VWS V14.00,2013-01-08 08:40:00,
2013-01-08 02:45:00,27.1,22.7,29.59,SSE,149,0.0,1.0,83,0.00,,---,0.00,VWS V14.00,2013-01-08 08:45:00,
2013-01-08 02:50:00,27.1,22.7,29.59,SSE,149,0.0,1.0,83,0.00,,---,0.00,VWS V14.00,2013-01-08 08:50:00,
2013-01-08 02:55:00,27.1,22.7,29.59,SSE,149,0.0,1.0,83,0.00,,---,0.00,VWS V14.00,2013-01-08 08:55:00,
2013-01-08 03:00:00,27.1,22.7,29.59,SSE,149,0.0,1.0,83,0.00,,---,0.00,VWS V14.00,2013-01-08 09:00:00,
2013-01-08 03:05:00,27.0,22.5,29.59,SSE,149,0.0,1.0,83,0.00,,---,0.00,VWS V14.00,2013-01-08 09:05:00,
2013-01-08 03:10:00,27.0,22.5,29.59,SSE,149,0.0,1.0,83,0.00,,---,0.00,VWS V14.00,2013-01-08 09:10:00,
2013-01-08 03:15:00,26.8,22.3,29.59,SSE,149,0.0,1.0,83,0.00,,---,0.00,VWS V14.00,2013-01-08 09:15:00,
2013-01-08 03:20:00,26.6,22.4,29.59,SSE,149,0.0,1.0,84,0.00,,---,0.00,VWS V14.00,2013-01-08 09:20:00,
2013-01-08 03:25:00,26.6,22.4,29.59,SSE,149,0.0,1.0,84,0.00,,---,0.00,VWS V14.00,2013-01-08 09:25:00,
2013-01-08 03:30:00,26.8,22.6,29.59,SSE,149,0.0,1.0,84,0.00,,---,0.00,VWS V14.00,2013-01-08 09:30:00,
2013-01-08 03:35:00,27.0,22.8,29.59,SSE,149,0.0,1.0,84,0.00,,---,0.00,VWS V14.00,2013-01-08 09:35:00,
2013-01-08 03:40:00,27.3,23.1,29.59,SSE,149,0.0,1.0,84,0.00,,---,0.00,VWS V14.00,2013-01-08 09:40:00,
2013-01-08 03:45:00,28.0,23.8,29.59,SSE,153,0.0,1.0,84,0.00,,---,0.00,VWS V14.00,2013-01-08 09:45:00,
2013-01-08 03:50:00,28.2,24.0,29.59,SSE,153,0.0,1.0,84,0.00,,---,0.00,VWS V14.00,2013-01-08 09:50:00,
2013-01-08 03:55:00,28.4,24.2,29.56,SSE,149,0.0,1.0,84,0.00,,---,0.00,VWS V14.00,2013-01-08 09:55:00,
2013-01-08 04:00:00,28.4,24.2,29.56,SSE,149,0.0,1.0,84,0.00,,---,0.00,VWS V14.00,2013-01-08 10:00:00,
2013-01-08 04:05:00,28.6,24.1,29.59,SSE,149,0.0,1.0,83,0.00,,---,0.00,VWS V14.00,2013-01-08 10:05:00,
2013-01-08 04:10:00,28.2,23.7,29.59,SSE,149,0.0,1.0,83,0.00,,---,0.00,VWS V14.00,2013-01-08 10:10:00,
2013-01-08 04:15:00,28.0,23.5,29.59,SSE,149,0.0,1.0,83,0.00,,---,0.00,VWS V14.00,2013-01-08 10:15:00,
2013-01-08 04:20:00,27.9,23.4,29.59,SSE,149,0.0,1.0,83,0.00,,---,0.00,VWS V14.00,2013-01-08 10:20:00,
2013-01-08 04:25:00,28.2,23.7,29.59,SSE,149,0.0,1.0,83,0.00,,---,0.00,VWS V14.00,2013-01-08 10:25:00,
2013-01-08 04:30:00,28.8,24.0,29.59,SSE,149,0.0,1.0,82,0.00,,---,0.00,VWS V14.00,2013-01-08 10:30:00,
2013-01-08 04:35:00,28.9,24.1,29.59,SSE,149,0.0,1.0,82,0.00,,---,0.00,VWS V14.00,2013-01-08 10:35:00,
2013-01-08 04:40:00,29.3,24.5,29.59,SSE,149,0.0,1.0,82,0.00,,---,0.00,VWS V14.00,2013-01-08 10:40:00,
2013-01-08 04:45:00,29.3,24.5,29.59,SSE,149,0.0,1.0,82,0.00,,---,0.00,VWS V14.00,2013-01-08 10:45:00,
2013-01-08 04:50:00,29.1,24.3,29.59,SSE,151,0.0,1.0,82,0.00,,---,0.00,VWS V14.00,2013-01-08 10:50:00,
2013-01-08 04:55:00,29.3,24.5,29.59,SE,143,0.0,1.0,82,0.00,,---,0.00,VWS V14.00,2013-01-08 10:55:00,
2013-01-08 05:00:00,29.1,24.0,29.59,SE,143,0.0,1.0,81,0.00,,---,0.00,VWS V14.00,2013-01-08 11:00:00,
2013-01-08 05:05:00,29.5,24.4,29.59,SE,141,0.0,1.0,81,0.00,,---,0.00,VWS V14.00,2013-01-08 11:05:00,
2013-01-08 05:10:00,29.7,24.6,29.59,SE,142,4.7,8.2,81,0.00,,---,0.00,VWS V14.00,2013-01-08 11:10:00,
2013-01-08 05:15:00,30.0,24.9,29.59,SE,144,0.0,1.0,81,0.00,,---,0.00,VWS V14.00,2013-01-08 11:15:00,
2013-01-08 05:20:00,30.4,25.0,29.59,SE,144,0.0,1.0,80,0.00,,---,0.00,VWS V14.00,2013-01-08 11:20:00,
2013-01-08 05:25:00,30.4,25.0,29.59,SE,145,0.0,1.0,80,0.00,,---,0.00,VWS V14.00,2013-01-08 11:25:00,
2013-01-08 05:31:00,29.8,24.4,29.59,SE,145,0.0,1.0,80,0.00,,---,0.00,VWS V14.00,2013-01-08 11:31:00,
2013-01-08 05:36:00,29.5,24.1,29.59,SSE,149,0.0,1.0,80,0.00,,---,0.00,VWS V14.00,2013-01-08 11:36:00,
2013-01-08 05:41:00,29.5,24.1,29.59,SSE,163,0.0,1.0,80,0.00,,---,0.00,VWS V14.00,2013-01-08 11:41:00,
2013-01-08 05:46:00,29.7,24.3,29.59,SSE,163,0.0,1.0,80,0.00,,---,0.00,VWS V14.00,2013-01-08 11:46:00,
2013-01-08 05:51:00,29.5,24.1,29.59,SSE,163,0.0,1.0,80,0.00,,---,0.00,VWS V14.00,2013-01-08 11:51:00,
2013-01-08 05:56:00,30.0,24.6,29.59,SSE,163,0.0,1.0,80,0.00,,---,0.00,VWS V14.00,2013-01-08 11:56:00,
2013-01-08 06:01:00,29.8,24.4,29.59,SSE,162,0.0,1.0,80,0.00,,---,0.00,VWS V14.00,2013-01-08 12:01:00,
2013-01-08 06:06:00,30.2,24.8,29.62,SSE,162,0.0,1.0,80,0.00,,---,0.00,VWS V14.00,2013-01-08 12:06:00,
2013-01-08 06:11:00,30.7,25.0,29.62,SSE,162,0.0,1.0,79,0.00,,---,0.00,VWS V14.00,2013-01-08 12:11:00,
2013-01-08 06:16:00,30.9,25.2,29.62,SSE,163,0.0,1.0,79,0.00,,---,0.00,VWS V14.00,2013-01-08 12:16:00,
2013-01-08 06:21:00,30.7,25.0,29.62,SSE,163,0.0,1.0,79,0.00,,---,0.00,VWS V14.00,2013-01-08 12:21:00,
2013-01-08 06:26:00,30.6,24.5,29.62,SSE,163,0.0,1.0,78,0.00,,---,0.00,VWS V14.00,2013-01-08 12:26:00,
2013-01-08 06:31:00,30.6,24.5,29.62,SSE,163,0.0,1.0,78,0.00,,---,0.00,VWS V14.00,2013-01-08 12:31:00,
2013-01-08 06:36:00,30.7,24.7,29.59,SSE,163,0.0,1.0,78,0.00,,---,0.00,VWS V14.00,2013-01-08 12:36:00,
2013-01-08 06:41:00,31.1,25.0,29.59,SSE,152,0.0,1.0,78,0.00,,---,0.00,VWS V14.00,2013-01-08 12:41:00,
2013-01-08 06:46:00,31.3,25.2,29.59,SSE,158,0.0,1.0,78,0.00,,---,0.00,VWS V14.00,2013-01-08 12:46:00,
2013-01-08 06:51:00,31.3,25.2,29.62,SSE,159,0.0,1.0,78,0.00,,---,0.00,VWS V14.00,2013-01-08 12:51:00,
2013-01-08 06:56:00,31.1,25.0,29.62,SSE,162,0.0,1.0,78,0.00,,---,0.00,VWS V14.00,2013-01-08 12:56:00,
2013-01-08 07:01:00,30.9,24.6,29.62,SSE,164,0.0,1.0,77,0.00,,---,0.00,VWS V14.00,2013-01-08 13:01:00,
2013-01-08 07:06:00,30.9,24.6,29.62,SSE,168,5.4,7.4,77,0.00,,---,0.00,VWS V14.00,2013-01-08 13:06:00,
2013-01-08 07:11:00,31.1,24.8,29.62,SSE,165,4.7,6.6,77,0.00,,---,0.00,VWS V14.00,2013-01-08 13:11:00,
2013-01-08 07:16:00,31.3,24.9,29.62,SSE,163,5.4,7.4,77,0.00,,---,0.00,VWS V14.00,2013-01-08 13:16:00,
2013-01-08 07:21:00,31.1,24.8,29.62,SSE,163,4.7,6.6,77,0.00,,---,0.00,VWS V14.00,2013-01-08 13:21:00,
2013-01-08 07:26:00,31.3,24.9,29.62,SSE,163,0.0,1.0,77,0.00,,---,0.00,VWS V14.00,2013-01-08 13:26:00,
2013-01-08 07:31:00,31.3,24.9,29.62,SSE,163,0.0,1.0,77,0.00,,---,0.00,VWS V14.00,2013-01-08 13:31:00,
2013-01-08 07:36:00,31.6,25.6,29.62,SSE,164,0.0,1.0,78,0.00,,---,0.00,VWS V14.00,2013-01-08 13:36:00,
2013-01-08 07:41:00,32.0,25.9,29.62,SSE,164,0.0,1.0,78,0.00,,---,0.00,VWS V14.00,2013-01-08 13:41:00,
2013-01-08 07:46:00,32.2,26.1,29.62,SSE,163,0.0,1.0,78,0.00,,---,0.00,VWS V14.00,2013-01-08 13:46:00,
2013-01-08 07:51:00,32.4,26.3,29.62,SSE,164,0.0,1.0,78,0.00,,---,0.00,VWS V14.00,2013-01-08 13:51:00,
2013-01-08 07:56:00,32.7,26.6,29.65,SSE,149,0.0,1.0,78,0.00,,---,0.00,VWS V14.00,2013-01-08 13:56:00,
2013-01-08 08:01:00,32.7,26.6,29.65,SSE,148,0.0,1.0,78,0.00,,---,0.00,VWS V14.00,2013-01-08 14:01:00,
2013-01-08 08:06:00,32.5,26.5,29.65,SSE,148,0.0,1.0,78,0.00,,---,0.00,VWS V14.00,2013-01-08 14:06:00,
2013-01-08 08:11:00,32.7,26.6,29.65,SSE,148,0.0,1.0,78,0.00,,---,0.00,VWS V14.00,2013-01-08 14:11:00,
2013-01-08 08:16:00,32.9,26.8,29.65,SSE,152,0.0,1.0,78,0.00,,---,0.00,VWS V14.00,2013-01-08 14:16:00,
2013-01-08 08:21:00,33.1,27.0,29.65,SSE,152,0.0,1.0,78,0.00,,---,0.00,VWS V14.00,2013-01-08 14:21:00,
2013-01-08 08:26:00,33.1,27.0,29.65,SSE,152,0.0,1.0,78,0.00,,---,0.00,VWS V14.00,2013-01-08 14:26:00,
2013-01-08 08:31:00,33.3,27.1,29.65,SSE,152,0.0,1.0,78,0.00,,---,0.00,VWS V14.00,2013-01-08 14:31:00,
2013-01-08 08:36:00,33.4,27.3,29.65,SSE,152,0.0,1.0,78,0.00,,---,0.00,VWS V14.00,2013-01-08 14:36:00,
2013-01-08 08:41:00,33.6,27.5,29.65,SSE,152,0.0,1.0,78,0.00,,---,0.00,VWS V14.00,2013-01-08 14:41:00,
2013-01-08 08:46:00,33.8,27.4,29.65,SSE,159,0.0,1.0,77,0.00,,---,0.00,VWS V14.00,2013-01-08 14:46:00,
2013-01-08 08:51:00,34.0,27.5,29.65,SSE,155,0.0,1.0,77,0.00,,---,0.00,VWS V14.00,2013-01-08 14:51:00,
2013-01-08 08:56:00,34.3,27.9,29.65,SSE,158,0.0,1.0,77,0.00,,---,0.00,VWS V14.00,2013-01-08 14:56:00,
2013-01-08 09:01:00,35.4,28.9,29.65,SSE,158,0.0,1.0,77,0.00,,---,0.00,VWS V14.00,2013-01-08 15:01:00,
2013-01-08 09:06:00,36.7,29.8,29.65,SSE,163,0.0,1.0,76,0.00,,---,0.00,VWS V14.00,2013-01-08 15:06:00,
2013-01-08 09:11:00,37.6,30.4,29.65,South,179,0.0,1.0,75,0.00,,---,0.00,VWS V14.00,2013-01-08 15:11:00,
2013-01-08 09:16:00,38.3,30.8,29.65,SSE,159,6.7,9.1,74,0.00,,---,0.00,VWS V14.00,2013-01-08 15:16:00,
2013-01-08 09:21:00,39.4,31.1,29.65,SSE,168,5.4,10.7,72,0.00,,---,0.00,VWS V14.00,2013-01-08 15:21:00,
2013-01-08 09:26:00,39.9,31.3,29.65,SSE,159,4.7,6.6,71,0.00,,---,0.00,VWS V14.00,2013-01-08 15:26:00,
2013-01-08 09:31:00,40.6,31.6,29.65,South,171,5.4,7.4,70,0.00,,---,0.00,VWS V14.00,2013-01-08 15:31:00,
2013-01-08 09:36:00,41.2,31.4,29.65,South,188,4.7,6.6,68,0.00,,---,0.00,VWS V14.00,2013-01-08 15:36:00,
2013-01-08 09:41:00,41.7,31.6,29.65,SSE,164,7.4,9.9,67,0.00,,---,0.00,VWS V14.00,2013-01-08 15:41:00,
2013-01-08 09:46:00,42.4,32.3,29.65,South,185,5.4,7.4,67,0.00,,---,0.00,VWS V14.00,2013-01-08 15:46:00,
2013-01-08 09:51:00,43.2,32.2,29.65,South,176,5.4,7.4,65,0.00,,---,0.00,VWS V14.00,2013-01-08 15:51:00,
2013-01-08 09:56:00,43.5,32.2,29.65,SSE,157,4.0,8.2,64,0.00,,---,0.00,VWS V14.00,2013-01-08 15:56:00,
2013-01-08 10:01:00,43.9,32.1,29.65,SSW,197,3.4,6.6,63,0.00,,---,0.00,VWS V14.00,2013-01-08 16:01:00,
2013-01-08 10:06:00,44.6,32.0,29.65,South,183,7.4,9.9,61,0.00,,---,0.00,VWS V14.00,2013-01-08 16:06:00,
2013-01-08 10:11:00,45.0,31.9,29.65,South,179,5.4,9.9,60,0.00,,---,0.00,VWS V14.00,2013-01-08 16:11:00,
2013-01-08 10:16:00,45.5,32.0,29.65,South,176,8.7,11.5,59,0.00,,---,0.00,VWS V14.00,2013-01-08 16:16:00,
2013-01-08 10:21:00,45.7,32.2,29.65,SSW,193,6.0,12.3,59,0.00,,---,0.00,VWS V14.00,2013-01-08 16:21:00,
2013-01-08 10:26:00,46.6,32.2,29.65,SSW,209,5.4,7.4,57,0.00,,---,0.00,VWS V14.00,2013-01-08 16:26:00,
2013-01-08 10:31:00,47.3,32.4,29.65,SSE,159,8.1,10.7,56,0.00,,---,0.00,VWS V14.00,2013-01-08 16:31:00,
2013-01-08 10:36:00,48.0,33.1,29.65,SSW,199,6.0,8.2,56,0.00,,---,0.00,VWS V14.00,2013-01-08 16:36:00,
2013-01-08 10:41:00,48.0,32.6,29.65,South,178,8.7,11.5,55,0.00,,---,0.00,VWS V14.00,2013-01-08 16:41:00,
2013-01-08 10:46:00,48.2,32.3,29.65,SW,224,4.0,5.8,54,0.00,,---,0.00,VWS V14.00,2013-01-08 16:46:00,
2013-01-08 10:51:00,48.6,32.7,29.65,South,185,6.0,8.2,54,0.00,,---,0.00,VWS V14.00,2013-01-08 16:51:00,
2013-01-08 10:56:00,49.3,32.9,29.65,SW,222,0.0,6.6,53,0.00,,---,0.00,VWS V14.00,2013-01-08 16:56:00,
2013-01-08 11:01:00,49.8,33.4,29.65,SW,216,0.0,6.6,53,0.00,,---,0.00,VWS V14.00,2013-01-08 17:01:00,
2013-01-08 11:06:00,50.4,32.9,29.62,SSW,197,0.0,5.8,51,0.00,,---,0.00,VWS V14.00,2013-01-08 17:06:00,
2013-01-08 11:11:00,50.9,32.9,29.62,SSW,199,4.0,5.8,50,0.00,,---,0.00,VWS V14.00,2013-01-08 17:11:00,
2013-01-08 11:16:00,51.8,33.8,29.62,SSW,203,7.4,12.3,50,0.00,,---,0.00,VWS V14.00,2013-01-08 17:16:00,
2013-01-08 11:21:00,52.0,33.9,29.62,SSW,210,8.1,10.7,50,0.00,,---,0.00,VWS V14.00,2013-01-08 17:21:00,
2013-01-08 11:26:00,52.5,33.9,29.62,SW,221,9.4,12.3,49,0.00,,---,0.00,VWS V14.00,2013-01-08 17:26:00,
2013-01-08 11:31:00,52.5,33.4,29.62,SSW,203,9.4,12.3,48,0.00,,---,0.00,VWS V14.00,2013-01-08 17:31:00,
2013-01-08 11:36:00,53.2,34.1,29.62,WSW,247,6.0,11.5,48,0.00,,---,0.00,VWS V14.00,2013-01-08 17:36:00,
2013-01-08 11:41:00,53.4,34.2,29.62,SW,223,5.4,7.4,48,0.00,,---,0.00,VWS V14.00,2013-01-08 17:41:00,
2013-01-08 11:46:00,53.8,34.0,29.62,SSW,196,5.4,10.7,47,0.00,,---,0.00,VWS V14.00,2013-01-08 17:46:00,
2013-01-08 11:51:00,53.8,33.5,29.62,South,178,0.0,1.0,46,0.00,,---,0.00,VWS V14.00,2013-01-08 17:51:00,
2013-01-08 11:56:00,54.0,33.1,29.62,WSW,239,6.0,8.2,45,0.00,,---,0.00,VWS V14.00,2013-01-08 17:56:00,
2013-01-08 12:01:00,54.0,33.1,29.62,SW,214,8.7,11.5,45,0.00,,---,0.00,VWS V14.00,2013-01-08 18:01:00,
2013-01-08 12:06:00,54.1,33.3,29.59,SSW,200,8.1,10.7,45,0.00,,---,0.00,VWS V14.00,2013-01-08 18:06:00,
2013-01-08 12:11:00,54.1,33.3,29.59,WSW,239,8.1,10.7,45,0.00,,---,0.00,VWS V14.00,2013-01-08 18:11:00,
2013-01-08 12:16:00,54.9,33.4,29.59,SW,223,7.4,9.9,44,0.00,,---,0.00,VWS V14.00,2013-01-08 18:16:00,
2013-01-08 12:21:00,54.9,33.4,29.59,SSW,192,8.1,10.7,44,0.00,,---,0.00,VWS V14.00,2013-01-08 18:21:00,
2013-01-08 12:26:00,54.9,33.4,29.59,SSW,208,3.4,5.0,44,0.00,,---,0.00,VWS V14.00,2013-01-08 18:26:00,
2013-01-08 12:31:00,55.0,33.5,29.59,SSW,195,0.0,1.0,44,0.00,,---,0.00,VWS V14.00,2013-01-08 18:31:00,
2013-01-08 12:36:00,55.2,33.1,29.59,SSW,203,0.0,1.0,43,0.00,,---,0.00,VWS V14.00,2013-01-08 18:36:00,
2013-01-08 12:41:00,55.4,32.7,29.59,SW,224,4.7,10.7,42,0.00,,---,0.00,VWS V14.00,2013-01-08 18:41:00,
2013-01-08 12:46:00,55.6,32.9,29.59,SW,215,0.0,1.0,42,0.00,,---,0.00,VWS V14.00,2013-01-08 18:46:00,
2013-01-08 12:51:00,55.6,32.9,29.59,SSW,204,6.0,8.2,42,0.00,,---,0.00,VWS V14.00,2013-01-08 18:51:00,
2013-01-08 12:56:00,54.9,32.2,29.59,South,180,8.1,10.7,42,0.00,,---,0.00,VWS V14.00,2013-01-08 18:56:00,
2013-01-08 13:01:00,54.5,31.9,29.59,South,189,4.7,6.6,42,0.00,,---,0.00,VWS V14.00,2013-01-08 19:01:00,
2013-01-08 13:06:00,55.2,32.5,29.59,South,190,7.4,9.9,42,0.00,,---,0.00,VWS V14.00,2013-01-08 19:06:00,
2013-01-08 13:11:00,55.0,32.4,29.59,SE,144,8.7,11.5,42,0.00,,---,0.00,VWS V14.00,2013-01-08 19:11:00,
2013-01-08 13:16:00,54.7,32.1,29.59,South,175,4.0,7.4,42,0.00,,---,0.00,VWS V14.00,2013-01-08 19:16:00,
2013-01-08 13:21:00,55.0,32.4,29.56,South,191,8.1,10.7,42,0.00,,---,0.00,VWS V14.00,2013-01-08 19:21:00,
2013-01-08 13:26:00,55.4,32.1,29.56,South,185,4.7,6.6,41,0.00,,---,0.00,VWS V14.00,2013-01-08 19:26:00,
2013-01-08 13:31:00,55.6,32.3,29.56,SSW,205,4.7,9.9,41,0.00,,---,0.00,VWS V14.00,2013-01-08 19:31:00,
2013-01-08 13:36:00,56.1,32.8,29.56,SSW,193,4.0,5.8,41,0.00,,---,0.00,VWS V14.00,2013-01-08 19:36:00,
2013-01-08 13:41:00,55.9,32.0,29.56,SSW,194,4.0,11.5,40,0.00,,---,0.00,VWS V14.00,2013-01-08 19:41:00,
2013-01-08 13:46:00,55.8,31.8,29.56,South,184,6.0,11.5,40,0.00,,---,0.00,VWS V14.00,2013-01-08 19:46:00,
2013-01-08 13:51:00,55.9,32.0,29.56,South,174,9.4,12.3,40,0.00,,---,0.00,VWS V14.00,2013-01-08 19:51:00,
2013-01-08 13:56:00,56.5,32.5,29.56,SSW,200,4.7,8.2,40,0.00,,---,0.00,VWS V14.00,2013-01-08 19:56:00,
2013-01-08 14:01:00,56.3,32.3,29.56,SSW,193,4.0,5.8,40,0.00,,---,0.00,VWS V14.00,2013-01-08 20:01:00,
2013-01-08 14:06:00,56.7,32.6,29.56,South,187,6.0,12.3,40,0.00,,---,0.00,VWS V14.00,2013-01-08 20:06:00,
2013-01-08 14:11:00,56.7,32.6,29.56,South,181,4.0,5.8,40,0.00,,---,0.00,VWS V14.00,2013-01-08 20:11:00,
2013-01-08 14:16:00,56.7,32.6,29.56,South,186,0.0,6.6,40,0.00,,---,0.00,VWS V14.00,2013-01-08 20:16:00,
2013-01-08 14:21:00,56.8,32.8,29.56,SSW,207,5.4,7.4,40,0.00,,---,0.00,VWS V14.00,2013-01-08 20:21:00,
2013-01-08 14:27:00,56.8,32.8,29.56,SSW,192,4.7,11.5,40,0.00,,---,0.00,VWS V14.00,2013-01-08 20:27:00,
2013-01-08 14:32:00,57.2,32.5,29.56,South,182,0.0,1.0,39,0.00,,---,0.00,VWS V14.00,2013-01-08 20:32:00,
2013-01-08 14:37:00,57.2,32.5,29.56,SW,221,0.0,5.8,39,0.00,,---,0.00,VWS V14.00,2013-01-08 20:37:00,
2013-01-08 14:42:00,57.2,32.5,29.56,SSW,211,4.7,6.6,39,0.00,,---,0.00,VWS V14.00,2013-01-08 20:42:00,
2013-01-08 14:47:00,57.2,32.5,29.56,SSE,166,0.0,5.8,39,0.00,,---,0.00,VWS V14.00,2013-01-08 20:47:00,
2013-01-08 14:52:00,57.0,33.0,29.56,South,172,8.1,10.7,40,0.00,,---,0.00,VWS V14.00,2013-01-08 20:52:00,
2013-01-08 14:57:00,56.8,32.8,29.56,South,176,7.4,9.9,40,0.00,,---,0.00,VWS V14.00,2013-01-08 20:57:00,
2013-01-08 15:02:00,56.8,32.8,29.56,South,184,7.4,9.9,40,0.00,,---,0.00,VWS V14.00,2013-01-08 21:02:00,
2013-01-08 15:07:00,56.7,32.6,29.56,SSW,199,0.0,1.0,40,0.00,,---,0.00,VWS V14.00,2013-01-08 21:07:00,
2013-01-08 15:12:00,56.5,32.5,29.56,South,171,3.4,5.0,40,0.00,,---,0.00,VWS V14.00,2013-01-08 21:12:00,
2013-01-08 15:17:00,56.1,31.5,29.56,SSE,167,0.0,1.0,39,0.00,,---,0.00,VWS V14.00,2013-01-08 21:17:00,
2013-01-08 15:22:00,55.9,31.4,29.56,South,190,0.0,1.0,39,0.00,,---,0.00,VWS V14.00,2013-01-08 21:22:00,
2013-01-08 15:27:00,55.9,32.0,29.56,South,187,0.0,1.0,40,0.00,,---,0.00,VWS V14.00,2013-01-08 21:27:00,
2013-01-08 15:32:00,55.9,32.0,29.56,SSE,157,0.0,1.0,40,0.00,,---,0.00,VWS V14.00,2013-01-08 21:32:00,
2013-01-08 15:37:00,55.8,31.8,29.56,SSE,167,0.0,1.0,40,0.00,,---,0.00,VWS V14.00,2013-01-08 21:37:00,
2013-01-08 15:42:00,55.8,31.8,29.56,SSE,162,0.0,1.0,40,0.00,,---,0.00,VWS V14.00,2013-01-08 21:42:00,
2013-01-08 15:47:00,55.6,31.7,29.56,South,182,0.0,1.0,40,0.00,,---,0.00,VWS V14.00,2013-01-08 21:47:00,
2013-01-08 15:52:00,55.6,31.7,29.56,SSE,156,0.0,1.0,40,0.00,,---,0.00,VWS V14.00,2013-01-08 21:52:00,
2013-01-08 15:57:00,55.2,32.0,29.56,SSE,157,0.0,1.0,41,0.00,,---,0.00,VWS V14.00,2013-01-08 21:57:00,
2013-01-08 16:02:00,54.7,31.5,29.56,SSE,157,0.0,1.0,41,0.00,,---,0.00,VWS V14.00,2013-01-08 22:02:00,
2013-01-08 16:07:00,54.3,31.7,29.56,SSE,157,0.0,1.0,42,0.00,,---,0.00,VWS V14.00,2013-01-08 22:07:00,
2013-01-08 16:12:00,54.0,31.4,29.56,SSE,157,0.0,1.0,42,0.00,,---,0.00,VWS V14.00,2013-01-08 22:12:00,
2013-01-08 16:17:00,53.8,31.2,29.56,SSE,153,5.4,7.4,42,0.00,,---,0.00,VWS V14.00,2013-01-08 22:17:00,
2013-01-08 16:23:00,53.8,31.2,29.56,South,169,4.0,6.6,42,0.00,,---,0.00,VWS V14.00,2013-01-08 22:23:00,
2013-01-08 16:28:00,53.8,30.6,29.56,SSE,168,0.0,6.6,41,0.00,,---,0.00,VWS V14.00,2013-01-08 22:28:00,
2013-01-08 16:33:00,53.6,30.5,29.56,SSE,163,0.0,1.0,41,0.00,,---,0.00,VWS V14.00,2013-01-08 22:33:00,
2013-01-08 16:38:00,53.2,30.8,29.56,SSE,168,0.0,1.0,42,0.00,,---,0.00,VWS V14.00,2013-01-08 22:38:00,
2013-01-08 16:43:00,52.3,30.0,29.56,SSE,168,0.0,1.0,42,0.00,,---,0.00,VWS V14.00,2013-01-08 22:43:00,
2013-01-08 16:48:00,52.0,30.2,29.56,SSE,168,0.0,1.0,43,0.00,,---,0.00,VWS V14.00,2013-01-08 22:48:00,
2013-01-08 16:53:00,51.6,29.9,29.56,SSE,168,0.0,1.0,43,0.00,,---,0.00,VWS V14.00,2013-01-08 22:53:00,
2013-01-08 16:58:00,51.4,29.7,29.56,SSE,168,0.0,1.0,43,0.00,,---,0.00,VWS V14.00,2013-01-08 22:58:00,
2013-01-08 17:03:00,50.5,29.5,29.56,SSE,168,0.0,1.0,44,0.00,,---,0.00,VWS V14.00,2013-01-08 23:03:00,
2013-01-08 17:08:00,50.2,29.7,29.56,SSE,168,0.0,1.0,45,0.00,,---,0.00,VWS V14.00,2013-01-08 23:08:00,
2013-01-08 17:13:00,49.5,29.6,29.56,SSE,168,0.0,1.0,46,0.00,,---,0.00,VWS V14.00,2013-01-08 23:13:00,
2013-01-08 17:18:00,48.9,29.6,29.56,SSE,168,0.0,1.0,47,0.00,,---,0.00,VWS V14.00,2013-01-08 23:18:00,
2013-01-08 17:23:00,48.6,29.3,29.59,SSE,168,0.0,1.0,47,0.00,,---,0.00,VWS V14.00,2013-01-08 23:23:00,
2013-01-08 17:28:00,48.6,29.3,29.59,SSE,168,0.0,1.0,47,0.00,,---,0.00,VWS V14.00,2013-01-08 23:28:00,
2013-01-08 17:33:00,48.0,29.8,29.59,SSE,168,0.0,1.0,49,0.00,,---,0.00,VWS V14.00,2013-01-08 23:33:00,
2013-01-08 17:38:00,47.8,29.6,29.59,SSE,168,0.0,1.0,49,0.00,,---,0.00,VWS V14.00,2013-01-08 23:38:00,
2013-01-08 17:43:00,48.0,29.8,29.59,SSE,168,0.0,1.0,49,0.00,,---,0.00,VWS V14.00,2013-01-08 23:43:00,
2013-01-08 17:48:00,48.7,29.9,29.59,SSE,168,0.0,1.0,48,0.00,,---,0.00,VWS V14.00,2013-01-08 23:48:00,
2013-01-08 17:53:00,49.1,30.3,29.59,SSE,168,0.0,1.0,48,0.00,,---,0.00,VWS V14.00,2013-01-08 23:53:00,
2013-01-08 17:58:00,48.7,29.9,29.59,SSE,168,0.0,1.0,48,0.00,,---,0.00,VWS V14.00,2013-01-08 23:58:00,
2013-01-08 18:03:00,48.4,29.6,29.59,SSE,168,0.0,1.0,48,0.00,,---,0.00,VWS V14.00,2013-01-09 00:03:00,
2013-01-08 18:08:00,47.7,29.5,29.59,SSE,168,0.0,1.0,49,0.00,,---,0.00,VWS V14.00,2013-01-09 00:08:00,
2013-01-08 18:13:00,47.7,29.5,29.59,SSE,168,0.0,1.0,49,0.00,,---,0.00,VWS V14.00,2013-01-09 00:13:00,
2013-01-08 18:19:00,46.6,29.0,29.56,SSE,168,0.0,1.0,50,0.00,,---,0.00,VWS V14.00,2013-01-09 00:19:00,
2013-01-08 18:24:00,45.9,28.8,29.56,SSE,168,0.0,1.0,51,0.00,,---,0.00,VWS V14.00,2013-01-09 00:24:00,
2013-01-08 18:29:00,45.5,28.9,29.56,SSE,168,0.0,1.0,52,0.00,,---,0.00,VWS V14.00,2013-01-09 00:29:00,
2013-01-08 18:34:00,45.3,28.8,29.56,SSE,168,0.0,1.0,52,0.00,,---,0.00,VWS V14.00,2013-01-09 00:34:00,
2013-01-08 18:39:00,45.0,28.4,29.56,SSE,168,0.0,1.0,52,0.00,,---,0.00,VWS V14.00,2013-01-09 00:39:00,
2013-01-08 18:44:00,44.6,28.5,29.56,SSE,168,0.0,1.0,53,0.00,,---,0.00,VWS V14.00,2013-01-09 00:44:00,
2013-01-08 18:49:00,44.4,28.8,29.56,SSE,168,0.0,1.0,54,0.00,,---,0.00,VWS V14.00,2013-01-09 00:49:00,
2013-01-08 18:54:00,44.2,28.7,29.56,SSE,166,0.0,1.0,54,0.00,,---,0.00,VWS V14.00,2013-01-09 00:54:00,
2013-01-08 18:59:00,44.2,28.7,29.56,SSE,166,0.0,1.0,54,0.00,,---,0.00,VWS V14.00,2013-01-09 00:59:00,
2013-01-08 19:04:00,43.3,28.7,29.56,SSE,166,0.0,1.0,56,0.00,,---,0.00,VWS V14.00,2013-01-09 01:04:00,
2013-01-08 19:09:00,42.8,28.6,29.56,SSE,166,0.0,1.0,57,0.00,,---,0.00,VWS V14.00,2013-01-09 01:09:00,
2013-01-08 19:14:00,42.6,28.9,29.56,SSE,166,0.0,1.0,58,0.00,,---,0.00,VWS V14.00,2013-01-09 01:14:00,
2013-01-08 19:19:00,43.0,28.8,29.56,SSE,166,0.0,1.0,57,0.00,,---,0.00,VWS V14.00,2013-01-09 01:19:00,
2013-01-08 19:24:00,43.0,28.8,29.56,SSE,166,0.0,1.0,57,0.00,,---,0.00,VWS V14.00,2013-01-09 01:24:00,
2013-01-08 19:29:00,43.3,29.1,29.56,SSE,166,0.0,1.0,57,0.00,,---,0.00,VWS V14.00,2013-01-09 01:29:00,
2013-01-08 19:34:00,43.0,28.8,29.56,SSE,166,0.0,1.0,57,0.00,,---,0.00,VWS V14.00,2013-01-09 01:34:00,
2013-01-08 19:39:00,43.0,28.8,29.56,SSE,166,0.0,1.0,57,0.00,,---,0.00,VWS V14.00,2013-01-09 01:39:00,
2013-01-08 19:44:00,43.2,29.4,29.56,SSE,166,0.0,1.0,58,0.00,,---,0.00,VWS V14.00,2013-01-09 01:44:00,
2013-01-08 19:49:00,43.3,29.6,29.56,SSE,166,0.0,1.0,58,0.00,,---,0.00,VWS V14.00,2013-01-09 01:49:00,
2013-01-08 19:54:00,43.3,29.6,29.56,SSE,166,0.0,1.0,58,0.00,,---,0.00,VWS V14.00,2013-01-09 01:54:00,
2013-01-08 19:59:00,43.3,29.6,29.56,SSE,166,0.0,1.0,58,0.00,,---,0.00,VWS V14.00,2013-01-09 01:59:00,
2013-01-08 20:05:00,43.2,29.8,29.56,SSE,166,0.0,1.0,59,0.00,,---,0.00,VWS V14.00,2013-01-09 02:05:00,
2013-01-08 20:10:00,43.3,30.0,29.56,SSE,166,0.0,1.0,59,0.00,,---,0.00,VWS V14.00,2013-01-09 02:10:00,
2013-01-08 20:15:00,43.0,29.6,29.56,SSE,166,0.0,1.0,59,0.00,,---,0.00,VWS V14.00,2013-01-09 02:15:00,
2013-01-08 20:20:00,43.0,29.6,29.56,SSE,165,0.0,1.0,59,0.00,,---,0.00,VWS V14.00,2013-01-09 02:20:00,
2013-01-08 20:25:00,42.6,29.7,29.56,SSE,165,0.0,1.0,60,0.00,,---,0.00,VWS V14.00,2013-01-09 02:25:00,
2013-01-08 20:30:00,42.6,29.7,29.56,SSE,165,0.0,1.0,60,0.00,,---,0.00,VWS V14.00,2013-01-09 02:30:00,
2013-01-08 20:35:00,42.8,29.9,29.56,SSE,165,0.0,1.0,60,0.00,,---,0.00,VWS V14.00,2013-01-09 02:35:00,
2013-01-08 20:40:00,42.8,29.9,29.56,SSE,165,0.0,1.0,60,0.00,,---,0.00,VWS V14.00,2013-01-09 02:40:00,
2013-01-08 20:48:00,43.0,30.5,29.56,SSE,165,0.0,1.0,61,0.00,,---,0.00,VWS V14.00,2013-01-09 02:48:00,
2013-01-08 20:53:00,42.8,30.3,29.56,SSE,165,0.0,1.0,61,0.00,,---,0.00,VWS V14.00,2013-01-09 02:53:00,
2013-01-08 20:58:00,42.8,30.7,29.56,SSE,165,0.0,1.0,62,0.00,,---,0.00,VWS V14.00,2013-01-09 02:58:00,
2013-01-08 21:03:00,42.8,30.7,29.56,SSE,165,0.0,1.0,62,0.00,,---,0.00,VWS V14.00,2013-01-09 03:03:00,
2013-01-08 21:08:00,43.2,31.0,29.56,SSE,165,0.0,1.0,62,0.00,,---,0.00,VWS V14.00,2013-01-09 03:08:00,
2013-01-08 21:13:00,43.2,31.0,29.56,SSE,165,0.0,1.0,62,0.00,,---,0.00,VWS V14.00,2013-01-09 03:13:00,
2013-01-08 21:18:00,43.2,31.0,29.56,SSE,165,0.0,1.0,62,0.00,,---,0.00,VWS V14.00,2013-01-09 03:18:00,
2013-01-08 21:23:00,43.5,31.0,29.56,SSE,165,0.0,1.0,61,0.00,,---,0.00,VWS V14.00,2013-01-09 03:23:00,
2013-01-08 21:28:00,43.5,31.0,29.56,SSE,165,0.0,1.0,61,0.00,,---,0.00,VWS V14.00,2013-01-09 03:28:00,
2013-01-08 21:33:00,43.7,31.1,29.56,SSE,165,0.0,1.0,61,0.00,,---,0.00,VWS V14.00,2013-01-09 03:33:00,
2013-01-08 21:38:00,43.9,30.9,29.56,SSE,165,0.0,1.0,60,0.00,,---,0.00,VWS V14.00,2013-01-09 03:38:00,
2013-01-08 21:43:00,44.4,31.4,29.56,SSE,165,0.0,1.0,60,0.00,,---,0.00,VWS V14.00,2013-01-09 03:43:00,
2013-01-08 21:48:00,44.6,31.2,29.56,SSE,165,0.0,1.0,59,0.00,,---,0.00,VWS V14.00,2013-01-09 03:48:00,
2013-01-08 21:53:00,44.6,30.8,29.56,SSE,165,0.0,1.0,58,0.00,,---,0.00,VWS V14.00,2013-01-09 03:53:00,
2013-01-08 21:58:00,44.8,30.9,29.56,SSE,165,0.0,1.0,58,0.00,,---,0.00,VWS V14.00,2013-01-09 03:58:00,
2013-01-08 22:03:00,44.8,30.9,29.56,SSE,165,0.0,1.0,58,0.00,,---,0.00,VWS V14.00,2013-01-09 04:03:00,
2013-01-08 22:08:00,45.0,31.1,29.56,SSE,159,0.0,1.0,58,0.00,,---,0.00,VWS V14.00,2013-01-09 04:08:00,
2013-01-08 22:13:00,44.8,30.9,29.56,SSE,159,0.0,1.0,58,0.00,,---,0.00,VWS V14.00,2013-01-09 04:13:00,
2013-01-08 22:18:00,44.2,30.8,29.56,SSE,159,0.0,1.0,59,0.00,,---,0.00,VWS V14.00,2013-01-09 04:18:00,
2013-01-08 22:23:00,43.3,30.4,29.56,SSE,159,0.0,1.0,60,0.00,,---,0.00,VWS V14.00,2013-01-09 04:23:00,
2013-01-08 22:28:00,43.0,30.1,29.56,SSE,159,0.0,1.0,60,0.00,,---,0.00,VWS V14.00,2013-01-09 04:28:00,
2013-01-08 22:33:00,42.3,30.6,29.59,SSE,159,0.0,1.0,63,0.00,,---,0.00,VWS V14.00,2013-01-09 04:33:00,
2013-01-08 22:38:00,41.9,30.6,29.59,SSE,159,0.0,1.0,64,0.00,,---,0.00,VWS V14.00,2013-01-09 04:38:00,
2013-01-08 22:43:00,41.5,30.7,29.59,SSE,159,0.0,1.0,65,0.00,,---,0.00,VWS V14.00,2013-01-09 04:43:00,
2013-01-08 22:48:00,41.4,30.5,29.59,SSE,159,0.0,1.0,65,0.00,,---,0.00,VWS V14.00,2013-01-09 04:48:00,
2013-01-08 22:53:00,41.2,30.3,29.59,SSE,159,0.0,1.0,65,0.00,,---,0.00,VWS V14.00,2013-01-09 04:53:00,
2013-01-08 22:58:00,41.2,30.7,29.59,SSE,159,0.0,1.0,66,0.00,,---,0.00,VWS V14.00,2013-01-09 04:58:00,
2013-01-08 23:00:00,41.4,30.9,29.59,SSE,159,0.0,1.0,66,0.00,,---,0.00,VWS V14.00,2013-01-09 05:00:00,
2013-01-08 23:01:00,41.4,30.9,29.59,SSE,159,0.0,1.0,66,0.00,,---,0.00,VWS V14.00,2013-01-09 05:01:00,
2013-01-08 23:06:00,42.1,31.6,29.56,SSE,159,0.0,1.0,66,0.00,,---,0.00,VWS V14.00,2013-01-09 05:06:00,
2013-01-08 23:11:00,42.3,31.7,29.56,SSE,159,0.0,1.0,66,0.00,,---,0.00,VWS V14.00,2013-01-09 05:11:00,
2013-01-08 23:16:00,42.3,31.7,29.56,SSE,159,0.0,1.0,66,0.00,,---,0.00,VWS V14.00,2013-01-09 05:16:00,
2013-01-08 23:21:00,42.3,31.4,29.59,South,183,0.0,1.0,65,0.00,,---,0.00,VWS V14.00,2013-01-09 05:21:00,
2013-01-08 23:26:00,42.4,31.9,29.59,SSE,166,0.0,1.0,66,0.00,,---,0.00,VWS V14.00,2013-01-09 05:26:00,
2013-01-08 23:31:00,43.2,32.2,29.59,SSE,164,0.0,1.0,65,0.00,,---,0.00,VWS V14.00,2013-01-09 05:31:00,
2013-01-08 23:36:00,43.7,32.7,29.59,South,170,0.0,1.0,65,0.00,,---,0.00,VWS V14.00,2013-01-09 05:36:00,
2013-01-08 23:41:00,44.2,32.8,29.59,South,169,0.0,1.0,64,0.00,,---,0.00,VWS V14.00,2013-01-09 05:41:00,
2013-01-08 23:46:00,44.4,33.0,29.59,South,169,0.0,1.0,64,0.00,,---,0.00,VWS V14.00,2013-01-09 05:46:00,
2013-01-08 23:51:00,44.8,33.0,29.59,South,169,0.0,1.0,63,0.00,,---,0.00,VWS V14.00,2013-01-09 05:51:00,
2013-01-08 23:56:00,45.0,33.1,29.59,South,170,0.0,1.0,63,0.00,,---,0.00,VWS V14.00,2013-01-09 05:56:00,